Simultaneous Nadir Overpasses (SNOs) Predictions

Prediction of SNOs between LANDSAT-8 and METOP-B Satellite Orbit:

Table of predicted SNOs for the next 14.0 days since TLE Epoch: 4/6/2019
Index Date (LANDSAT-8) Time (LANDSAT-8) Lat,Lon (LANDSAT-8) SZA (LANDSAT-8 ) Date (METOP-B) Time (METOP-B) Lat,Lon (METOP-B) SZA (METOP-B ) Distance(km) Time Diff (sec)
1 04/08/2019 05:27:22 81.08, 136.93 75.90 04/08/2019 05:26:35 81.08, 136.81 75.87 2.10 47
2 04/08/2019 06:16:48 -81.10, -55.12 104.07 04/08/2019 06:17:14 -81.10, -55.27 104.07 2.73 26
3 04/11/2019 01:01:35 81.09,-156.52 74.90 04/11/2019 01:00:57 81.09,-156.56 74.88 0.69 38
4 04/11/2019 01:51:01 -81.11, 11.46 105.07 04/11/2019 01:51:36 -81.11, 11.39 105.06 1.24 35
5 04/13/2019 20:35:49 81.09, -89.99 73.90 04/13/2019 20:35:20 81.09, -89.94 73.90 0.86 29
6 04/13/2019 21:25:15 -81.12, 78.01 106.06 04/13/2019 21:25:59 -81.12, 78.04 106.04 0.43 44
7 04/16/2019 16:10:03 81.10, -23.49 72.93 04/16/2019 16:09:43 81.10, -23.34 72.94 2.52 20
8 04/16/2019 16:59:29 -81.12, 144.54 107.03 04/16/2019 17:00:22 -81.12, 144.67 106.99 2.28 53
9 04/19/2019 11:44:16 81.10, 42.99 71.97 04/19/2019 11:44:06 81.09, 42.87 71.95 2.32 10




NCC Satellite Simultaneous Nadir Overpasses (SNOs) Prediction Service
